Tracking 30261 objects as of 18-Feb-2025
HD Live streaming from Space Station
objects crossing your sky now

ONEWEB-0511

Track ONEWEB-0511 now!
10-day predictions
ONEWEB-0511 is classified as:


NORAD ID: 54129
Int'l Code: 2022-138S
Perigee: 1,191.7 km
Apogee: 1,194.1 km
Inclination: 87.9 °
Period: 109.1 minutes
Semi major axis: 7563 km
RCS: Unknown
Launch date: October 22, 2022
Source: United Kingdom (UK)
Launch site: SRIHARIKOTA (SRI)
Your satellite tracking list
Your tracking list is empty




NASA's NSSDC Master Catalog

Two Line Element Set (TLE):
1 54129U 22138S   25048.92274214  .00000109  00000-0  23962-3 0  9992
2 54129  87.9160  41.2075 0001602  95.6573 264.4742 13.19725931112966
Source of the keplerian elements: AFSPC